Location: Bacea
(45.9500°N, 22.6667°E)
Time: 15:40:51
(UTC+00:00)

Envisat - Pass Details

Date: 05 February 2022
Orbit: 764 x 765 km, 98.2° (Epoch: 15 May)

Event Time Altitude Azimuth Distance (km) Brightness Sun altitude
Rises 03:05:38 0° 17° (NNE) 3,243 6.5 -28.3°
Reaches altitude 10° 03:08:00 10° 21° (NNE) 2,312 5.8 -27.9°
Maximum altitude 03:13:01 57° 100° (E) 905 3.6 -27.0°
Drops below altitude 10° 03:17:59 10° 179° (S) 2,297 5.4 -26.1°
Sets 03:20:19 0° 183° (S) 3,219 6.2 -25.7°
